Date String (YYYY-MM-DD hh:mm:ss) UTC,Instrument flags,absolute air pressure of the measurement (hPa),sample flow rate (lpm),inlet stack bypass flow (lpm),air temperature of the measurement (°C),ambient temperature measured by the external sensor (°C),aerosol sample conditioner tube jacket temperature (°C),OPC LED temperature (°C),internal box temperature (°C),relative humidity of the measurement (%),span deviation,mass concentration of particles derived from Lorenz-Mie calculation of OPC scattering (μg/m³),mass concentration of particles derived from Lorenz-Mie calculation of OPC scattering (μg/m³),mass concentration of particles derived from Lorenz-Mie calculation of OPC scattering (μg/m³)
DateTimeUTC,F1_M11,P_M11,Q1_M11,Q2_M11,T1_M11,T2_M11,T3_M11,T4_M11,T5_M11,U1_M11,ZSPAN_M11,X0_M11,X2_M11,X1_M11
2024-04-08 01:00:00,SystemResetWarning,0821.1,4.99,000.00,020.2,019.4,000.0,028.7,021.9,009.9,0000.0,0004.96,0001.82,0000.99
2024-04-08 01:01:00,SystemResetWarning,0821.3,5.00,000.00,020.1,019.4,000.0,028.7,021.9,009.7,0000.0,0004.85,0001.82,0000.98
2024-04-08 01:02:00,SystemResetWarning,0821.3,5.01,000.00,020.1,019.4,000.0,028.7,021.9,009.8,0000.0,0004.77,0001.79,0000.96
2024-04-08 01:03:00,SystemResetWarning,0821.2,5.00,000.00,020.1,019.4,000.0,028.7,021.8,009.7,0000.0,0003.92,0001.70,0000.95
2024-04-08 01:04:00,SystemResetWarning,0821.2,5.00,000.00,020.1,019.4,000.0,028.7,021.8,009.7,0000.0,0002.99,0001.65,0000.94
2024-04-08 01:05:00,SystemResetWarning,0821.3,5.00,000.00,020.1,019.4,000.0,028.7,021.8,009.7,0000.0,0002.84,0001.56,0000.93
2024-04-08 01:06:00,SystemResetWarning,0821.8,4.99,000.00,020.1,019.4,000.0,028.7,021.8,009.6,0000.0,0003.04,0001.57,0000.92
2024-04-08 01:07:00,SystemResetWarning,0821.8,5.00,000.00,020.1,019.4,000.0,028.7,021.8,009.7,0000.0,0003.17,0001.59,0000.92
2024-04-08 01:08:00,SystemResetWarning,0821.6,5.00,000.00,020.1,019.4,000.0,028.6,021.8,009.9,0000.0,0003.08,0001.56,0000.91
2024-04-08 01:09:00,SystemResetWarning,0821.6,5.00,000.00,020.1,019.4,000.0,028.6,021.8,009.9,0000.0,0002.95,0001.47,0000.88
2024-04-08 01:10:00,SystemResetWarning,0821.6,5.00,000.00,020.1,019.4,000.0,028.6,021.8,009.8,0000.0,0002.85,0001.40,0000.86
2024-04-08 01:11:00,SystemResetWarning,0821.6,4.99,000.00,020.1,019.4,000.0,028.6,021.8,009.7,0000.0,0003.43,0001.41,0000.86
2024-04-08 01:12:00,SystemResetWarning,0821.7,4.99,000.00,020.1,019.4,000.0,028.6,021.8,009.7,0000.0,0003.52,0001.42,0000.86
2024-04-08 01:13:00,SystemResetWarning,0821.7,5.00,000.00,020.1,019.4,000.0,028.6,021.8,009.6,0000.0,0003.71,0001.45,0000.87
2024-04-08 01:14:00,SystemResetWarning,0821.6,5.01,000.00,020.1,019.4,000.0,028.6,021.8,009.5,0000.0,0003.81,0001.48,0000.88
2024-04-08 01:15:00,SystemResetWarning,0821.5,5.01,000.00,020.1,019.4,000.0,028.6,021.8,009.6,0000.0,0004.17,0001.48,0000.89
2024-04-08 01:16:00,SystemResetWarning,0821.3,5.01,000.00,020.1,019.3,000.0,028.6,021.8,009.6,0000.0,0005.30,0001.53,0000.90
2024-04-08 01:17:00,SystemResetWarning,0821.3,4.99,000.00,020.1,019.3,000.0,028.6,021.8,009.9,0000.0,0006.38,0001.55,0000.91
2024-04-08 01:18:00,SystemResetWarning,0821.3,4.99,000.00,020.0,019.3,000.0,028.6,021.7,010.0,0000.0,0007.24,0001.53,0000.90
2024-04-08 01:19:00,SystemResetWarning,0821.3,4.99,000.00,020.0,019.3,000.0,028.6,021.8,010.0,0000.0,0007.49,0001.55,0000.90
2024-04-08 01:20:00,SystemResetWarning,0821.3,5.01,000.00,020.0,019.2,000.0,028.6,021.7,009.9,0000.0,0008.39,0001.61,0000.92
2024-04-08 01:21:00,SystemResetWarning,0821.3,5.02,000.00,020.0,019.2,000.0,028.6,021.7,010.1,0000.0,0008.91,0001.64,0000.92
2024-04-08 01:22:00,SystemResetWarning,0821.2,4.99,000.00,020.0,019.2,000.0,028.6,021.7,010.2,0000.0,0008.57,0001.64,0000.92
2024-04-08 01:23:00,SystemResetWarning,0820.9,4.99,000.00,020.0,019.2,000.0,028.5,021.7,009.7,0000.0,0008.63,0001.69,0000.92
2024-04-08 01:24:00,SystemResetWarning,0820.9,5.00,000.00,020.0,019.2,000.0,028.5,021.6,009.8,0000.0,0008.64,0001.72,0000.92
2024-04-08 01:25:00,SystemResetWarning,0821.1,5.01,000.00,020.0,019.2,000.0,028.5,021.6,009.7,0000.0,0008.71,0001.73,0000.91
2024-04-08 01:26:00,SystemResetWarning,0821.0,5.01,000.00,020.0,019.2,000.0,028.5,021.6,009.3,0000.0,0008.55,0001.73,0000.91
2024-04-08 01:27:00,SystemResetWarning,0821.3,4.99,000.00,019.9,019.1,000.0,028.4,021.5,009.0,0000.0,0008.01,0001.71,0000.91
2024-04-08 01:28:00,SystemResetWarning,0821.4,4.99,000.00,019.9,019.1,000.0,028.4,021.5,009.7,0000.0,0007.20,0001.65,0000.91
2024-04-08 01:29:00,SystemResetWarning,0821.4,4.99,000.00,019.9,019.1,000.0,028.4,021.5,010.2,0000.0,0006.23,0001.65,0000.92
2024-04-08 01:30:00,SystemResetWarning,0821.4,5.01,000.00,019.9,019.1,000.0,028.4,021.5,010.3,0000.0,0005.78,0001.59,0000.90
2024-04-08 01:31:00,SystemResetWarning,0820.9,5.00,000.00,019.9,019.0,000.0,028.4,021.5,010.0,0000.0,0004.19,0001.53,0000.88
2024-04-08 01:32:00,SystemResetWarning,0820.7,5.00,000.00,019.9,019.0,000.0,028.4,021.4,008.5,0000.0,0003.83,0001.56,0000.89
2024-04-08 01:33:00,SystemResetWarning,0821.0,5.00,000.00,019.8,019.0,000.0,028.3,021.4,008.3,0000.0,0004.40,0001.66,0000.93
2024-04-08 01:34:00,SystemResetWarning,0821.2,5.00,000.00,019.8,018.9,000.0,028.3,021.3,008.7,0000.0,0004.80,0001.77,0000.96
2024-04-08 01:35:00,SystemResetWarning,0821.2,4.99,000.00,019.8,018.9,000.0,028.3,021.3,009.0,0000.0,0005.63,0001.76,0000.97
2024-04-08 01:36:00,SystemResetWarning,0821.3,5.00,000.00,019.8,018.9,000.0,028.3,021.3,008.8,0000.0,0005.95,0001.78,0000.99
2024-04-08 01:37:00,SystemResetWarning,0821.7,4.99,000.00,019.8,018.9,000.0,028.2,021.3,008.3,0000.0,0006.04,0001.84,0001.02
2024-04-08 01:38:00,SystemResetWarning,0821.3,5.01,000.00,019.7,018.9,000.0,028.2,021.3,008.0,0000.0,0006.15,0001.88,0001.03
2024-04-08 01:39:00,SystemResetWarning,0821.7,5.00,000.00,019.7,018.9,000.0,028.2,021.2,007.4,0000.0,0006.36,0001.97,0001.07
2024-04-08 01:40:00,SystemResetWarning,0821.6,5.00,000.00,019.7,018.8,000.0,028.2,021.2,009.1,0000.0,0006.58,0002.06,0001.10
2024-04-08 01:41:00,SystemResetWarning,0821.6,5.00,000.00,019.7,018.8,000.0,028.2,021.3,009.9,0000.0,0006.67,0002.11,0001.11
2024-04-08 01:42:00,SystemResetWarning,0821.3,5.00,000.00,019.7,018.8,000.0,028.2,021.2,009.4,0000.0,0006.77,0002.15,0001.12
2024-04-08 01:43:00,SystemResetWarning,0821.3,5.00,000.00,019.7,018.8,000.0,028.1,021.2,009.8,0000.0,0006.79,0002.21,0001.13
2024-04-08 01:44:00,SystemResetWarning,0821.1,4.99,000.00,019.6,018.8,000.0,028.1,021.1,010.1,0000.0,0005.86,0002.10,0001.10
2024-04-08 01:45:00,SystemResetWarning,0821.0,5.00,000.00,019.6,018.8,000.0,028.1,021.1,009.7,0000.0,0005.47,0001.98,0001.08
2024-04-08 01:46:00,SystemResetWarning,0821.2,5.00,000.00,019.6,018.7,000.0,028.1,021.1,009.4,0000.0,0006.12,0001.98,0001.08
2024-04-08 01:47:00,SystemResetWarning,0821.8,5.00,000.00,019.6,018.7,000.0,028.0,021.0,008.0,0000.0,0005.40,0002.00,0001.11
2024-04-08 01:48:00,SystemResetWarning,0821.7,5.00,000.00,019.6,018.7,000.0,028.0,021.1,008.4,0000.0,0005.39,0002.01,0001.13
2024-04-08 01:49:00,SystemResetWarning,0821.8,5.00,000.00,019.5,018.7,000.0,028.0,021.1,009.1,0000.0,0005.31,0001.98,0001.12
2024-04-08 01:50:00,SystemResetWarning,0821.5,5.00,000.00,019.5,018.7,000.0,028.0,021.1,010.1,0000.0,0005.19,0001.90,0001.11
2024-04-08 01:51:00,SystemResetWarning,0821.7,5.00,000.00,019.5,018.7,000.0,028.0,021.1,009.5,0000.0,0005.32,0001.87,0001.09
2024-04-08 01:52:00,SystemResetWarning,0821.6,5.00,000.00,019.5,018.7,000.0,028.0,021.0,009.1,0000.0,0005.96,0001.92,0001.10
2024-04-08 01:53:00,SystemResetWarning,0821.6,5.00,000.00,019.5,018.6,000.0,028.0,021.0,009.8,0000.0,0006.05,0001.93,0001.12
2024-04-08 01:54:00,SystemResetWarning,0821.7,5.00,000.00,019.5,018.6,000.0,027.9,021.0,010.1,0000.0,0005.79,0001.88,0001.12
2024-04-08 01:55:00,SystemResetWarning,0821.9,5.00,000.00,019.5,018.6,000.0,027.9,021.0,009.9,0000.0,0005.89,0001.91,0001.14
2024-04-08 01:56:00,SystemResetWarning,0821.9,5.01,000.00,019.4,018.6,000.0,027.9,021.0,010.2,0000.0,0005.94,0001.92,0001.15
2024-04-08 01:57:00,SystemResetWarning,0822.0,5.00,000.00,019.4,018.6,000.0,027.9,021.0,010.5,0000.0,0004.60,0001.81,0001.13
2024-04-08 01:58:00,SystemResetWarning,0822.0,5.00,000.00,019.4,018.5,000.0,027.9,021.0,010.7,0000.0,0004.43,0001.80,0001.11
2024-04-08 01:59:00,SystemResetWarning,0822.1,5.00,000.00,019.4,018.5,000.0,027.9,021.0,010.8,0000.0,0004.31,0001.75,0001.10
